Starlink 30880

operational
NORAD ID: 58232 Int'l Des: 2023-171 Owner: SPXS Country: US Constellation: starlink
LEOCIRCULAR

About Starlink 30880

Description loading...

Live Position

Loading 3D Globe...

Upcoming Passes

Altitude History

Altitude vs Time

uPlot chart will show altitude changes over time

Two-Line Element Set

1 58232U 23171C 26036.44641896 .00000376 00000-0 42908-4 0 9996
2 58232 43.0024 101.3396 0001200 260.2753 99.7953 15.02532936124876
Epoch: Feb 5, 2026 • Age: 7 hours

Current Status

Altitude 563.0 km
Velocity 7.59 km/s
Sub-Earth Point 42.95°N, 158.07°E
Launch Date Nov 8, 2023
Age 2.2 years
Type internet

Technical Details

Classification Payload
Mass 730.00 kg
Dry Mass 700.00 kg
Total Mass 730.00 kg
Length 0.30 m
Diameter 4.10 m
Span 29.00 m
Shape Box + pan
Manufacturer SPXS
Bus Type Starlink V2M
Phase Status In Orbit
Owner/State SPXS/US

Large Constellations

Loading constellations...